When you browse on this site, cookies collect data to enhance your experience and personalize the content and advertising you see.
Visit our Privacy Policy to learn more. By continuing to use the site, you agree to this use of cookies and data.
  • In Hungary
  • List of Countries
  • For 7 days
  • Water Temperature
  • Satellite Maps
  • Weather Map
  • News
  • Weather Widgets
  • user-avatar
    Login

    Hourly Weather Miechów

    Today, 16 January, Wednesday

    Time Temperature Precipitation Wind Pressure Humidity
    00:00 -1°C° 0.5 mm 9 mps 724 mmHg 91%
    01:00 -1°C° 0 mm 6 mps 724 mmHg 94%
    02:00 -1°C° 0.4 mm 7 mps 724 mmHg 93%
    03:00 -1°C° 0.4 mm 8 mps 724 mmHg 93%
    04:00 -1°C° 0.4 mm 9 mps 725 mmHg 92%
    05:00 -1°C° 0.4 mm 8 mps 725 mmHg 93%
    06:00 -1°C° 0.4 mm 7 mps 726 mmHg 95%
    07:00 -1°C° 0 mm 6 mps 726 mmHg 95%
    08:00 -1°C° 0.6 mm 6 mps 727 mmHg 96%
    09:00 -1°C° 0.6 mm 6 mps 727 mmHg 97%
    10:00 -1°C° 0.6 mm 6 mps 727 mmHg 98%
    11:00 -1°C° 0.1 mm 6 mps 728 mmHg 98%
    12:00 -1°C° 0.1 mm 6 mps 728 mmHg 97%
    13:00 -1°C° 0.1 mm 6 mps 728 mmHg 97%
    14:00 -1°C° 0 mm 6 mps 728 mmHg 96%
    15:00 0°C° 0 mm 5 mps 729 mmHg 95%
    16:00 0°C° 0 mm 4 mps 729 mmHg 95%
    17:00 0°C° 0 mm 4 mps 729 mmHg 93%
    18:00 -1°C° 0 mm 4 mps 729 mmHg 92%
    19:00 -1°C° 0 mm 4 mps 729 mmHg 91%
    20:00 -1°C° 0 mm 4 mps 728 mmHg 91%
    21:00 -2°C° 0 mm 4 mps 728 mmHg 90%
    22:00 -2°C° 0 mm 4 mps 728 mmHg 89%
    23:00 -2°C° 0 mm 4 mps 728 mmHg 88%

    Tomorrow, 17 January, Thursday

    Time Temperature Precipitation Wind Pressure Humidity
    00:00 -2°C° 0 mm 4 mps 727 mmHg 88%
    01:00 -2°C° 0 mm 4 mps 727 mmHg 87%
    02:00 -2°C° 0 mm 4 mps 727 mmHg 83%
    03:00 -1°C° 0 mm 4 mps 726 mmHg 79%
    04:00 -1°C° 0 mm 5 mps 726 mmHg 76%
    05:00 -1°C° 0 mm 5 mps 726 mmHg 74%
    06:00 -2°C° 0 mm 6 mps 725 mmHg 72%
    07:00 -2°C° 0 mm 6 mps 725 mmHg 70%
    08:00 -1°C° 0 mm 6 mps 725 mmHg 71%
    09:00 -1°C° 0 mm 6 mps 725 mmHg 72%
    10:00 +1°C° 0 mm 6 mps 725 mmHg 73%
    11:00 +1°C° 0 mm 6 mps 725 mmHg 75%
    12:00 0°C° 0 mm 7 mps 725 mmHg 77%
    13:00 0°C° 0 mm 7 mps 725 mmHg 79%
    14:00 +1°C° 0 mm 6 mps 725 mmHg 81%
    15:00 -1°C° 0 mm 6 mps 725 mmHg 82%
    16:00 0°C° 0 mm 5 mps 726 mmHg 83%
    17:00 0°C° 0 mm 5 mps 726 mmHg 83%
    18:00 -1°C° 0 mm 6 mps 725 mmHg 83%
    19:00 -1°C° 0 mm 6 mps 725 mmHg 83%
    20:00 -1°C° 0 mm 6 mps 725 mmHg 83%
    21:00 0°C° 0 mm 7 mps 725 mmHg 83%
    22:00 0°C° 0 mm 8 mps 725 mmHg 83%
    23:00 -1°C° 0.1 mm 7 mps 726 mmHg 84%

    Day after tomorrow, 18 January, Friday

    Time Temperature Precipitation Wind Pressure Humidity
    00:00 -1°C° 0.1 mm 7 mps 726 mmHg 85%
    01:00 -1°C° 0.1 mm 7 mps 727 mmHg 86%
    02:00 -2°C° 0 mm 6 mps 727 mmHg 84%
    03:00 -2°C° 0 mm 6 mps 727 mmHg 83%
    04:00 -3°C° 0 mm 6 mps 727 mmHg 82%
    05:00 -3°C° 0 mm 6 mps 728 mmHg 80%
    06:00 -4°C° 0 mm 7 mps 728 mmHg 78%
    07:00 -4°C° 0 mm 7 mps 729 mmHg 76%
    08:00 -4°C° 0 mm 7 mps 730 mmHg 74%
    09:00 -5°C° 0 mm 8 mps 731 mmHg 73%
    10:00 -5°C° 0 mm 8 mps 732 mmHg 71%
    11:00 -5°C° 0.1 mm 8 mps 732 mmHg 72%
    12:00 -3°C° 0.1 mm 7 mps 733 mmHg 73%
    13:00 -3°C° 0.1 mm 7 mps 733 mmHg 75%
    14:00 -3°C° 0 mm 6 mps 734 mmHg 77%
    15:00 -4°C° 0 mm 5 mps 735 mmHg 79%
    16:00 -3°C° 0 mm 4 mps 735 mmHg 81%
    17:00 -3°C° 0 mm 4 mps 736 mmHg 83%
    18:00 -4°C° 0 mm 3 mps 736 mmHg 85%
    19:00 -4°C° 0 mm 3 mps 737 mmHg 87%
    20:00 -4°C° 0 mm 3 mps 737 mmHg 87%
    21:00 -5°C° 0 mm 3 mps 737 mmHg 86%
    22:00 -4°C° 0 mm 2 mps 737 mmHg 86%
    23:00 -4°C° 0 mm 2 mps 737 mmHg 85%

    19 January, Saturday

    Time Temperature Precipitation Wind Pressure Humidity
    00:00 -4°C° 0 mm 2 mps 737 mmHg 85%
    01:00 -4°C° 0 mm 2 mps 737 mmHg 84%
    02:00 -4°C° 0 mm 2 mps 737 mmHg 83%
    03:00 -4°C° 0 mm 2 mps 737 mmHg 82%
    04:00 -4°C° 0 mm 2 mps 737 mmHg 81%
    05:00 -4°C° 0 mm 2 mps 737 mmHg 80%
    06:00 -4°C° 0 mm 2 mps 737 mmHg 79%
    07:00 -4°C° 0 mm 2 mps 737 mmHg 78%
    08:00 -4°C° 0 mm 2 mps 737 mmHg 75%
    09:00 -4°C° 0 mm 2 mps 737 mmHg 73%
    10:00 -3°C° 0 mm 2 mps 737 mmHg 70%
    11:00 -3°C° 0 mm 2 mps 736 mmHg 68%
    12:00 0°C° 0 mm 1 mps 736 mmHg 66%
    13:00 0°C° 0 mm 1 mps 735 mmHg 64%
    14:00 0°C° 0 mm 1 mps 735 mmHg 66%
    15:00 -1°C° 0 mm 1 mps 735 mmHg 69%
    16:00 -1°C° 0 mm 1 mps 735 mmHg 71%
    17:00 -1°C° 0 mm 1 mps 735 mmHg 71%
    18:00 -2°C° 0 mm 1 mps 735 mmHg 72%
    19:00 -2°C° 0 mm 1 mps 735 mmHg 72%
    20:00 -2°C° 0 mm 1 mps 734 mmHg 73%
    21:00 -2°C° 0 mm 1 mps 734 mmHg 74%
    22:00 -2°C° 0 mm 1 mps 734 mmHg 75%
    23:00 -2°C° 0 mm 1 mps 734 mmHg 76%

    20 January, Sunday

    Time Temperature Precipitation Wind Pressure Humidity
    00:00 -2°C° 0 mm 1 mps 734 mmHg 77%
    01:00 -2°C° 0 mm 1 mps 733 mmHg 78%
    02:00 -2°C° 0 mm 1 mps 733 mmHg 80%
    03:00 -2°C° 0 mm 1 mps 733 mmHg 81%
    04:00 -3°C° 0 mm 1 mps 732 mmHg 83%
    05:00 -3°C° 0 mm 1 mps 732 mmHg 83%
    06:00 -3°C° 0 mm 1 mps 732 mmHg 83%
    07:00 -3°C° 0 mm 1 mps 732 mmHg 84%
    08:00 -3°C° 0 mm 1 mps 732 mmHg 82%
    09:00 -2°C° 0 mm 1 mps 732 mmHg 79%
    10:00 -2°C° 0 mm 1 mps 733 mmHg 77%
    11:00 -1°C° 0 mm 1 mps 732 mmHg 73%
    12:00 -1°C° 0 mm 1 mps 732 mmHg 70%
    13:00 0°C° 0 mm 1 mps 732 mmHg 66%
    14:00 -1°C° 0 mm 1 mps 732 mmHg 69%
    15:00 -1°C° 0 mm 1 mps 732 mmHg 71%
    16:00 -2°C° 0 mm 1 mps 732 mmHg 74%
    17:00 -3°C° 0 mm 0 mps 732 mmHg 74%
    18:00 -3°C° 0 mm 0 mps 732 mmHg 75%
    19:00 -3°C° 0 mm 0 mps 733 mmHg 75%
    20:00 -2°C° 0 mm 1 mps 733 mmHg 75%
    21:00 -2°C° 0 mm 1 mps 733 mmHg 76%
    22:00 -3°C° 0 mm 1 mps 734 mmHg 76%
    23:00 -3°C° 0 mm 1 mps 734 mmHg 76%

    21 January, Monday

    Time Temperature Precipitation Wind Pressure Humidity
    00:00 -5°C° 0 mm 2 mps 734 mmHg 77%
    01:00 -5°C° 0 mm 2 mps 734 mmHg 77%
    02:00 -5°C° 0 mm 2 mps 735 mmHg 78%
    03:00 -5°C° 0 mm 2 mps 735 mmHg 79%
    04:00 -6°C° 0 mm 2 mps 735 mmHg 80%
    05:00 -5°C° 0 mm 2 mps 736 mmHg 84%
    06:00 -5°C° 0 mm 2 mps 736 mmHg 88%
    07:00 -5°C° 0 mm 2 mps 737 mmHg 91%
    08:00 -6°C° 0 mm 3 mps 737 mmHg 88%
    09:00 -6°C° 0 mm 3 mps 738 mmHg 84%
    10:00 -5°C° 0 mm 3 mps 738 mmHg 81%
    11:00 -5°C° 0 mm 3 mps 738 mmHg 75%
    12:00 -5°C° 0 mm 3 mps 739 mmHg 70%
    13:00 -4°C° 0 mm 3 mps 739 mmHg 65%
    14:00 -5°C° 0 mm 3 mps 739 mmHg 67%
    15:00 -5°C° 0 mm 3 mps 739 mmHg 69%
    16:00 -5°C° 0 mm 2 mps 740 mmHg 71%
    17:00 -5°C° 0 mm 2 mps 740 mmHg 73%
    18:00 -5°C° 0 mm 2 mps 740 mmHg 75%
    19:00 -6°C° 0 mm 2 mps 741 mmHg 76%
    20:00 -4°C° 0 mm 1 mps 741 mmHg 77%
    21:00 -4°C° 0 mm 1 mps 741 mmHg 77%
    22:00 -4°C° 0 mm 1 mps 742 mmHg 77%
    23:00 -4°C° 0 mm 1 mps 742 mmHg 78%
    Show more